Regional Weather Roundup
Issued by NWS

Home | Current Version | Previous Version | Text Only | Print | Product List | Glossary Off
Versions: 1 2 3 4 5 6 7 8 9 10 11 12 13 14 15 16 17 18 19 20 21 22 23 24 25 26 27 28 29 30 31 32 33 34 35 36 37 38 39 40 41 42 43 44 45 46 47 48 49 50

094
ASUS43 KTOP 191459
RWRKS

WEATHER ROUNDUP FOR KANSAS
NATIONAL WEATHER SERVICE GOODLAND KS
900 AM CST THU JAN 19 2017

NOTE:  "FAIR" INDICATES FEW OR NO CLOUDS BELOW 12,000 FEET WITH NO
SIGNIFICANT WEATHER AND/OR OBSTRUCTIONS TO VISIBILITY.

KSZ001>006-013>018-027>032-041>047-191600-
NORTHWEST KANSAS

CITY           SKY/WX    TMP DP  RH WIND       PRES   REMARKS
GOODLAND       FOG       27  27 100 SE8       29.59S VSB<1/4
HAYS           CLOUDY    44  42  93 SE9       29.67S
HILL CITY      CLOUDY    42  42 100 SE3       29.66S FOG
RUSSELL        CLOUDY    43  42  97 SE8       29.66S FOG
$$

KSZ061>065-074>080-084>089-191600-
SOUTHWEST KANSAS

CITY           SKY/WX    TMP DP  RH WIND       PRES   REMARKS
DODGE CITY     CLOUDY    43  40  89 S12       29.63S
ELKHART          N/A     28  19  69 NW6         N/A
GARDEN CITY    CLOUDY    40  38  93 CALM      29.61S FOG
GREAT BEND     LGT RAIN  44  43  96 S10       29.68S FOG
LIBERAL        CLOUDY    32  28  86 N7        29.60R VSB 1/4
$$

KSZ066>073-081>083-090>101-191600-
SOUTHEAST KANSAS

CITY           SKY/WX    TMP DP  RH WIND       PRES   REMARKS
CHANUTE        FOG       45  44  97 S7        29.79F VSB 1/4
COFFEYVILLE    FOG       46  45  96 S7        29.80S VSB 1
HUTCHINSON     CLOUDY    45  44  97 SE13      29.70F FOG
MEDICINE LODGE   N/A     45  44  97 SE14G22   29.66F
NEWTON         FOG       45  43  93 S10       29.73F VSB 3/4
PARSONS        FOG       45  45 100 S5        29.80F VSB 1/4
WICHITA INTL   CLOUDY    46  45  96 S13       29.72S FOG
WICHITA JABRA  CLOUDY    45  45 100 SE10      29.73F FOG
WINFIELD       CLOUDY    47  44  90 SE9       29.74F
$$

KSZ007>012-019>026-033>040-048>060-102>105-191600-
NORTHEAST KANSAS

CITY           SKY/WX    TMP DP  RH WIND       PRES   REMARKS
CONCORDIA      CLOUDY    43  43 100 S8        29.72S FOG
EMPORIA        CLOUDY    44  43  96 S10       29.76S FOG
LAWRENCE       CLOUDY    44  44 100 E3        29.80S FOG
MANHATTAN      CLOUDY    43  42  97 S5        29.76S FOG
OLATHE IND     CLOUDY    44  43  96 S7        29.80S FOG
OLATHE EXE     FOG       43  43 100 S8        29.80R VSB 1/4
SALINA         CLOUDY    45  43  93 SE10      29.74S FOG
TOPEKA BILLARD CLOUDY    45  42  89 S6        29.80R FOG
TOPEKA FORBES  CLOUDY    45  44  97 SE6       29.79R FOG
$$




USA.gov is the U.S. government's official web portal to all federal, state and local government web resources and services.